Location: Burgberg
(50.1428°N, 11.0671°E)
Time: 21:29:22
(UTC+00:00)

Cosmos 2333 Rocket - Pass Details

Date: 26 January 2020
Orbit: 838 x 863 km, 70.8° (Epoch: 17 February)

Event Time Altitude Azimuth Distance (km) Brightness Sun altitude
Rises 06:08:16 0° 195° (SSW) 3,430 5.4 -8.2°
Reaches altitude 10° 06:10:45 10° 192° (SSW) 2,498 4.8 -7.8°
Maximum altitude 06:16:24 61° 113° (ESE) 978 3.0 -6.9°
Drops below altitude 10° 06:22:04 10° 35° (NE) 2,509 4.8 -6.1°
Sets 06:24:34 0° 32° (NNE) 3,448 5.5 -5.7°
